Showing default

AISSAT 2, 40075

Orbit data source: Space-Track

AISSAT 2, 40075 is a payload satellite owned by NSC (NO) in SSO that was launched on Tue, 08 Jul 2014 UTC via a SOYUZ-2-1B launch vehicle from the Tyuratam Missile And Space Complex (TTMTR). Payload-class satellites include a variety of spacecraft equipped with specific instruments for various scientific and technological missions. These include communications satellites like Starlink; space stations such as the ISS; scientific satellites like the Hubble; Earth observation satellites from companies like Planet Labs, Umbra, and HawkEye 360; GPS; miniature CubeSats for education and research; and military/defense satellites.

Loading next visibility...
Identifier
40075, 2014-037G
Orbit
SSO
Last TLE update
10 hours ago
Origin
Manufacturer
UTIAS-SFL
Mission
Non-operational Civil Communications
Bus & Motor
GNB, Unknown motor
Mass
7 kg wet, 7 kg dry
Launch date (UTC)
2014-07-08 (11 years ago)
Launch vehicle
SOYUZ-2-1B
Launch site
Tyuratam Missile And Space Complex (TTMTR)
Object type
Payload
Rocket body
Debris
Shape & HBR
Box + 2 Ant, 1 m
Radar Cross Section
0.093 m², Medium (>0.1 m² and < 1m²)

Expand to show TLE details & history

TLE from 10 hours ago
0 AISSAT 2
1 40075U 14037G   25182.79514855  .00001854  00000-0  19277-3 0  9990
2 40075  98.3577 128.4422 0004364 342.3801  17.7264 14.91232747594485
Epoch: 2025-07-01T19:05Z
TLE epoch observation values (Epoch: 2025-07-01T19:05:00.834Z)
Latitude
-0°
Longitude
-77.89675°
Altitude
594.214 km
Speed
7.564 km/s
True Right ascension
08h 33m 46s
True Declination
0° 00' 00"
Sunlit
Object was in daylight at epoch
Visualization orbit readout
Latitude
49.79064°
Longitude
-87.41383°
Altitude
600.939 km
Speed
7.565 km/s
Apparent Right ascension
06h 13m 26s
Apparent Declination
8° 12' 33"
Sunlit
Object is in daylight
Visualization observer readout
Local Sidereal Time
16:39:44
Azimuth
330.384° NNW
Elevation
-37.223°
Doppler factor
1
Orbital elements
Apogee altitude
594.179 km
Perigee altitude
588.096 km
Semi-major axis
6,969.275 km
Eccentricity
0.00044
Inclination
98.3577°
RAAN
128.4422°
Arg. of periapsis
342.3801°
True anomaly
Unknown
Mean anomaly
17.7264°
Eccentric anomaly
Unknown
Mean motion
3.73045 °/min
Orbital period
96.5 mins
BSTAR
0.00019277
Loading maneuver chart data...
Loading SW <> Apogee altitude chart data...
Loading historical data...
Loading historical data...
Loading historical data...
Loading historical data...
Loading historical data...
Loading historical data...
Loading historical data...

AISSAT 2 Visibility forecast

Observer location: undefined°, undefined°

Span
Click to sort rows by Start time (UTC) header in descending order
Start Az.
Max El. time (UTC)
Max El. Az.
Max El.
End time (UTC)
End Az.
6 mins2025-07-02 08:33:14.591Z47.89° ENE2025-07-02 08:36:14.591Z106.119° ESE23.131°2025-07-02 08:39:14.591Z152.761° SSE
5 mins2025-07-02 10:09:14.591Z332.024° NNW2025-07-02 10:11:14.591Z292.589° NW22.796°2025-07-02 10:14:14.591Z240.714° WSW
4 mins2025-07-02 19:24:14.591Z99.736° ESE2025-07-02 19:26:14.591Z64.675° ENE18.183°2025-07-02 19:28:14.591Z30.725° NE
5 mins2025-07-02 20:59:14.591Z210.353° SW2025-07-02 21:01:14.591Z255.347° W28.927°2025-07-02 21:04:14.591Z319.938° NNW
|